Tracking 29892 objects as of 21-Nov-2024
HD Live streaming from Space Station
objects crossing your sky now

STARLINK-31950

Track STARLINK-31950 now!
10-day predictions
STARLINK-31950 is classified as:


NORAD ID: 59863
Int'l Code: 2024-098F
Perigee: 449.9 km
Apogee: 452.5 km
Inclination: 43.0 °
Period: 93.5 minutes
Semi major axis: 6822 km
RCS: Unknown
Launch date: May 24, 2024
Source: United States (US)
Launch site: AIR FORCE EASTERN TEST RANGE (AFETR)
Your satellite tracking list
Your tracking list is empty




NASA's NSSDC Master Catalog

Two Line Element Set (TLE):
1 59863U 24098F   24325.79723452 -.00001302  00000-0 -23905-4 0  9990
2 59863  43.0051  92.1915 0001861 276.8596  83.2049 15.40693875 28512
Source of the keplerian elements: AFSPC